[[{"header":{"parameterUnit":"m.s-1","parameterCategory":1,"la1":30.2991,"la2":30.254,"lo1":-89.0895,"lo2":-89.0444,"dy":0.0017,"dx":0.0017,"nx":28,"ny":28,"refTime":"2024-08-08T21:00:00:Z","depth":0,"parameterNumber":2,"parameterNumberName":"U-component_of_WINDS"},"data":[0,0,0,0,0,0,0,0,0,0,0,0,0,0,0,0,0,0,0,0,0,0,0,0,0,0,0,0,0,0,0,0,0,0,0,0,0,0,0,0,0,0,0,0,0,0,0,0,0,0,0,0,0,0,0,0,0,0,1.8122,1.8123,0,1.8158,1.8158,1.8159,1.8163,1.8163,1.8162,1.8162,1.8199,1.82,1.8201,0,0,0,0,0,0,0,0,0,0,0,0,0,1.8059,1.8061,1.8122,1.8123,1.8123,1.8158,1.8158,1.8159,1.8163,1.8163,1.8162,1.8162,1.8198,1.82,1.8202,0,0,0,0,0,0,0,0,0,0,0,0,0,1.809,1.8061,1.8122,1.813,1.8131,1.8158,1.8158,1.8159,1.8163,1.8163,1.8162,1.8162,1.8198,1.82,1.8202,1.8224,0,0,1.8208,1.8209,0,0,0,0,0,0,0,0,1.8088,1.8092,1.8128,1.8129,1.813,1.8156,1.815,1.8181,1.8163,1.8151,1.8162,1.8161,1.8185,1.8188,1.8196,1.8226,1.8228,1.8208,1.8209,1.821,1.8211,0,0,0,0,0,0,0,1.8086,1.8091,1.8136,1.8129,1.813,1.8131,1.8135,1.8156,1.817,1.8152,1.8152,1.8156,1.8185,1.8194,1.8197,1.8228,1.8208,1.821,1.8211,1.8212,1.8281,1.8281,0,0,0,0,0,0,1.8083,1.8089,1.8135,1.8138,1.8108,1.8133,1.8137,1.8148,1.817,1.8173,1.8157,1.8156,1.8191,1.8194,1.8198,1.8227,1.821,1.8212,1.8213,1.828,1.8281,1.8282,0,0,0,0,0,0,1.8081,1.8087,1.8134,1.8113,1.812,1.8135,1.8147,1.8149,1.8157,1.8174,1.8177,1.8163,1.819,1.8195,1.8218,1.8228,1.8213,1.8214,1.8279,1.828,1.8281,1.8284,0,0,0,0,0,0,1.8079,1.8086,1.8094,1.8114,1.8121,1.8153,1.8147,1.815,1.8161,1.8161,1.818,1.8183,1.819,1.8215,1.822,1.8231,1.8216,1.8278,1.828,1.8281,1.8283,1.8285,1.8287,0,0,0,0,0,1.8077,1.8094,1.8095,1.81,1.8131,1.8154,1.8158,1.8166,1.8161,1.817,1.8181,1.8182,1.8226,1.8218,1.8223,1.8234,1.8278,1.8279,1.8281,1.8283,1.8285,1.8287,0,0,0,0,0,0,1.8075,1.8096,1.8098,1.8121,1.8136,1.8154,1.8166,1.8168,1.8184,1.8183,1.8193,1.8198,1.822,1.823,1.8219,1.8258,1.8252,1.8254,1.8251,1.8254,1.8255,1.8253,1.8218,0,0,0,0,0,1.8077,1.8093,1.8111,1.813,1.8137,1.815,1.816,1.8165,1.8181,1.8187,1.8199,1.8215,1.8232,1.8243,1.826,1.8285,1.829,1.8296,1.8297,1.8299,1.8301,1.8316,1.8319,1.8286,1.8286,1.8286,0,0,1.8082,1.8096,1.8105,1.813,1.8142,1.8159,1.8155,1.8173,1.8186,1.819,1.8212,1.8222,1.824,1.8264,1.8275,1.8273,1.8311,1.8301,1.8301,1.8303,1.8318,1.8321,1.8323,1.8287,1.8287,1.8287,0,0,1.81,1.8111,1.8129,1.8141,1.8159,1.8168,1.8172,1.8191,1.8198,1.822,1.8224,1.824,1.8269,1.8282,1.8293,1.8317,1.8318,1.8322,1.8331,1.8345,1.8348,1.835,1.836,1.8363,1.8324,1.8324,1.8324,0,1.8103,1.8129,1.8137,1.8155,1.8167,1.8171,1.819,1.8201,1.8224,1.8232,1.8228,1.8266,1.8278,1.8306,1.8312,1.832,1.8326,1.8319,1.8347,1.8349,1.8352,1.8361,1.8364,1.8324,1.8324,1.8324,1.8324,0,1.8133,1.815,1.8162,1.8185,1.8197,1.8215,1.8227,1.8239,1.8244,1.8253,1.8277,1.8292,1.8312,1.832,1.8324,1.8348,1.8346,1.8345,1.8338,1.8355,1.8363,1.8367,1.8325,1.8325,1.8325,1.8324,0,0,1.8149,1.8177,1.8181,1.8192,1.8213,1.8227,1.8246,1.8266,1.8276,1.8292,1.8309,1.8334,1.8333,1.8345,1.8351,1.8364,1.8383,1.8361,1.8362,1.8365,1.8412,1.8413,1.8417,1.8385,1.8385,1.8386,1.8411,0,1.8169,1.8203,1.8212,1.824,1.8257,1.8263,1.8279,1.8294,1.8304,1.832,1.8331,1.8349,1.8346,1.8353,1.8366,1.8378,1.8393,1.8376,1.8401,1.8401,1.8396,1.8421,1.8422,1.8445,1.8414,1.8415,1.8415,0,1.8197,1.8214,1.8244,1.8264,1.8272,1.8286,1.8306,1.8322,1.8339,1.8345,1.8359,1.8365,1.8385,1.8378,1.8407,1.8396,1.8406,1.8414,1.8415,1.8418,1.8409,1.8425,1.8453,1.8456,1.842,1.842,1.842,0,1.8207,1.8237,1.8259,1.8268,1.8292,1.8302,1.8313,1.833,1.8342,1.836,1.8368,1.8387,1.8398,1.8414,1.8425,1.8418,1.8453,1.8447,1.8459,1.8459,1.8466,1.8466,1.8496,1.8473,1.8473,1.8473,1.8473,0,1.8229,1.8247,1.8264,1.8278,1.8299,1.831,1.8331,1.8341,1.8357,1.8373,1.8379,1.8395,1.8408,1.8425,1.8434,1.8457,1.8462,1.8468,1.847,1.8468,1.8467,1.8475,1.8474,1.8474,1.8473,1.8473,1.8473,0,1.8243,1.8255,1.828,1.8301,1.8306,1.8321,1.8339,1.8353,1.8363,1.8384,1.839,1.8406,1.8427,1.8439,1.8466,1.8472,1.8497,1.8499,1.8491,1.8492,1.8505,1.8504,1.8541,1.8547,1.852,1.852,1.852,0,1.8256,1.827,1.8293,1.8304,1.8315,1.8333,1.8346,1.8357,1.837,1.8392,1.8404,1.8425,1.8443,1.8476,1.8491,1.8511,1.8513,1.8525,1.8516,1.8514,1.8514,1.8513,1.8515,1.8527,1.8527,1.8527,1.8527,0,1.8278,1.8284,1.8301,1.8322,1.8337,1.8353,1.8369,1.8379,1.8393,1.8407,1.8429,1.8443,1.847,1.8492,1.8514,1.8525,1.8529,1.853,1.8534,1.8532,1.8527,1.853,1.8496,1.8529,1.8529,1.8529,1.8529,1.8529,1.8293,1.8306,1.8324,1.8344,1.8358,1.8374,1.8388,1.84,1.8419,1.8442,1.8448,1.8471,1.8489,1.8519,1.8531,1.855,1.8548,1.8554,1.8555,1.8557,1.8557,1.8524,1.8554,1.8554,1.8554,1.8554,1.8554,0,1.8316,1.8328,1.8346,1.8369,1.8385,1.8388,1.8406,1.842,1.844,1.8457,1.8474,1.85,1.8521,1.8537,1.8559,1.8571,1.8574,1.8577,1.8576,1.8579,1.8557,1.8552,1.8574,1.8574,1.8574,1.8574,1.8574,1.8574,1.833,1.8353,1.8361,1.8391,1.8404,1.8426,1.8437,1.8452,1.8465,1.8493,1.8511,1.8522,1.8539,1.8562,1.8582,1.8587,1.8595,1.8598,1.8602,1.8582,1.858,1.8578,1.8573,1.8599,1.8599,1.8622,1.8622,1.8622]},{"header":{"parameterUnit":"m.s-1","parameterCategory":1,"la1":30.2991,"la2":30.254,"lo1":-89.0895,"lo2":-89.0444,"dy":0.0017,"dx":0.0017,"nx":28,"ny":28,"refTime":"2024-08-08T21:00:00:Z","depth":0,"parameterNumber":3,"parameterNumberName":"V-component_of_WINDS"},"data":[0,0,0,0,0,0,0,0,0,0,0,0,0,0,0,0,0,0,0,0,0,0,0,0,0,0,0,0,0,0,0,0,0,0,0,0,0,0,0,0,0,0,0,0,0,0,0,0,0,0,0,0,0,0,0,0,0,0,-1.7394,-1.7395,0,-1.7419,-1.7419,-1.742,-1.7408,-1.7408,-1.7407,-1.7406,-1.7431,-1.7432,-1.7434,0,0,0,0,0,0,0,0,0,0,0,0,0,-1.7338,-1.7339,-1.7394,-1.7395,-1.7395,-1.7419,-1.7419,-1.742,-1.7408,-1.7408,-1.7407,-1.7406,-1.7431,-1.7432,-1.7434,0,0,0,0,0,0,0,0,0,0,0,0,0,-1.7363,-1.7339,-1.7394,-1.7392,-1.7392,-1.7419,-1.7419,-1.742,-1.7408,-1.7407,-1.7407,-1.7406,-1.743,-1.7432,-1.7434,-1.7464,0,0,-1.744,-1.744,0,0,0,0,0,0,0,0,-1.7361,-1.7365,-1.7392,-1.7392,-1.7392,-1.741,-1.7409,-1.7435,-1.7409,-1.7402,-1.7406,-1.7405,-1.7425,-1.7427,-1.7434,-1.7465,-1.7466,-1.744,-1.7441,-1.7442,-1.7442,0,0,0,0,0,0,0,-1.736,-1.7364,-1.7404,-1.7393,-1.7393,-1.739,-1.7393,-1.7414,-1.7418,-1.7403,-1.7402,-1.7405,-1.7425,-1.7432,-1.7434,-1.7467,-1.744,-1.7441,-1.7442,-1.7443,-1.7527,-1.7528,0,0,0,0,0,0,-1.7358,-1.7362,-1.7403,-1.7405,-1.7374,-1.7392,-1.7395,-1.7405,-1.7418,-1.7419,-1.7406,-1.7404,-1.7429,-1.7432,-1.7435,-1.7473,-1.7442,-1.7443,-1.7444,-1.7526,-1.7527,-1.7528,0,0,0,0,0,0,-1.7357,-1.7362,-1.7402,-1.7383,-1.7388,-1.7394,-1.7406,-1.7406,-1.7413,-1.742,-1.7421,-1.7412,-1.7428,-1.7432,-1.7457,-1.7473,-1.7444,-1.7446,-1.7524,-1.7526,-1.7528,-1.7548,0,0,0,0,0,0,-1.7355,-1.7361,-1.7372,-1.7384,-1.7389,-1.7424,-1.7407,-1.7407,-1.7417,-1.7415,-1.7427,-1.7428,-1.7428,-1.7455,-1.7459,-1.7476,-1.7447,-1.7523,-1.7525,-1.7527,-1.7546,-1.755,-1.7554,0,0,0,0,0,-1.7353,-1.7377,-1.7373,-1.7378,-1.7404,-1.7425,-1.7428,-1.7428,-1.7418,-1.743,-1.7435,-1.7427,-1.7471,-1.7457,-1.7462,-1.7479,-1.7522,-1.7524,-1.7527,-1.7544,-1.7549,-1.7554,0,0,0,0,0,0,-1.7366,-1.7378,-1.7374,-1.7402,-1.7413,-1.7423,-1.7438,-1.7433,-1.7447,-1.7445,-1.7444,-1.7447,-1.7474,-1.7479,-1.7464,-1.7511,-1.7495,-1.7498,-1.7506,-1.7511,-1.7515,-1.7514,-1.7449,0,0,0,0,0,-1.7372,-1.7389,-1.7398,-1.7422,-1.7428,-1.7432,-1.7441,-1.744,-1.7452,-1.7456,-1.7463,-1.7474,-1.749,-1.7501,-1.7516,-1.7546,-1.755,-1.7561,-1.7565,-1.7568,-1.7571,-1.759,-1.7595,-1.7536,-1.7536,-1.7536,0,0,-1.7385,-1.7394,-1.7404,-1.7425,-1.7433,-1.7451,-1.7436,-1.7455,-1.7468,-1.7459,-1.7484,-1.7489,-1.7501,-1.753,-1.7543,-1.7535,-1.7588,-1.7571,-1.7574,-1.7575,-1.7593,-1.7599,-1.7604,-1.7538,-1.7538,-1.7537,0,0,-1.7418,-1.7425,-1.7447,-1.7456,-1.7469,-1.7472,-1.7478,-1.7489,-1.7493,-1.7518,-1.7512,-1.7528,-1.7555,-1.7565,-1.7574,-1.7612,-1.7607,-1.7617,-1.7638,-1.7656,-1.7661,-1.7665,-1.7681,-1.7686,-1.762,-1.7621,-1.7621,0,-1.7432,-1.7459,-1.7458,-1.7479,-1.7489,-1.7482,-1.7504,-1.7513,-1.753,-1.7538,-1.7529,-1.7565,-1.7573,-1.7605,-1.7614,-1.7621,-1.7628,-1.7616,-1.766,-1.7664,-1.7668,-1.7683,-1.7689,-1.7622,-1.7622,-1.7622,-1.7621,0,-1.7477,-1.7495,-1.7511,-1.7529,-1.7541,-1.7562,-1.7566,-1.7578,-1.7576,-1.758,-1.7607,-1.7616,-1.7634,-1.7641,-1.764,-1.7674,-1.7669,-1.766,-1.7644,-1.7675,-1.7689,-1.7695,-1.7624,-1.7623,-1.7623,-1.7622,0,0,-1.7518,-1.7537,-1.7543,-1.7552,-1.7567,-1.7581,-1.7603,-1.7621,-1.7632,-1.7644,-1.7663,-1.7688,-1.7681,-1.7691,-1.769,-1.7706,-1.7738,-1.7695,-1.7696,-1.7704,-1.7779,-1.7786,-1.7792,-1.7735,-1.7736,-1.7737,-1.7778,0,-1.7553,-1.7591,-1.7592,-1.7627,-1.7645,-1.764,-1.7659,-1.767,-1.7675,-1.7692,-1.7697,-1.7715,-1.7703,-1.771,-1.7725,-1.7731,-1.7753,-1.7728,-1.7753,-1.7754,-1.7751,-1.7799,-1.7807,-1.7845,-1.7783,-1.7784,-1.7785,0,-1.7598,-1.7614,-1.7651,-1.7665,-1.7673,-1.769,-1.7708,-1.7723,-1.7737,-1.774,-1.7752,-1.7749,-1.7772,-1.7756,-1.7788,-1.7771,-1.7781,-1.7786,-1.7788,-1.7791,-1.7772,-1.7805,-1.7858,-1.7864,-1.7793,-1.7792,-1.7792,0,-1.7627,-1.7657,-1.7683,-1.7691,-1.7708,-1.772,-1.7728,-1.7741,-1.7752,-1.7768,-1.7776,-1.7794,-1.7804,-1.7818,-1.7821,-1.7808,-1.7854,-1.7837,-1.7858,-1.7858,-1.7868,-1.7868,-1.7925,-1.7873,-1.7873,-1.7873,-1.7873,0,-1.7667,-1.769,-1.7697,-1.7713,-1.7739,-1.7741,-1.7767,-1.7774,-1.7786,-1.7804,-1.78,-1.7817,-1.782,-1.7838,-1.784,-1.7868,-1.7872,-1.7875,-1.7876,-1.7877,-1.7876,-1.7884,-1.7882,-1.7874,-1.7874,-1.7874,-1.7873,0,-1.7703,-1.7708,-1.7737,-1.7751,-1.7756,-1.7775,-1.7787,-1.7803,-1.7808,-1.7832,-1.7837,-1.7845,-1.7866,-1.7871,-1.7895,-1.7897,-1.7931,-1.7928,-1.7926,-1.7927,-1.7948,-1.7946,-1.8012,-1.8022,-1.7963,-1.7963,-1.7964,0,-1.7728,-1.7746,-1.7763,-1.7776,-1.7784,-1.7804,-1.7816,-1.7819,-1.7832,-1.785,-1.7864,-1.7885,-1.7902,-1.7937,-1.7945,-1.7965,-1.7963,-1.7985,-1.7966,-1.7967,-1.7966,-1.7965,-1.7968,-1.7989,-1.799,-1.799,-1.7991,0,-1.7774,-1.7776,-1.7794,-1.7814,-1.7829,-1.7844,-1.7859,-1.7869,-1.7874,-1.7889,-1.7911,-1.7925,-1.7951,-1.7973,-1.7993,-1.8001,-1.7997,-1.7996,-1.8003,-1.8004,-1.8003,-1.8006,-1.7938,-1.7995,-1.7995,-1.7994,-1.7994,-1.7994,-1.7807,-1.7823,-1.7838,-1.7859,-1.7871,-1.7885,-1.7902,-1.7909,-1.7928,-1.795,-1.7951,-1.7976,-1.7991,-1.8017,-1.8027,-1.8047,-1.804,-1.8048,-1.8051,-1.8053,-1.8056,-1.7999,-1.805,-1.805,-1.805,-1.805,-1.805,0,-1.7853,-1.7863,-1.7882,-1.7904,-1.7921,-1.7916,-1.7932,-1.7947,-1.7969,-1.7983,-1.8001,-1.8027,-1.8049,-1.8059,-1.8081,-1.8095,-1.8094,-1.81,-1.81,-1.8102,-1.806,-1.8053,-1.8101,-1.8101,-1.8101,-1.8101,-1.8101,-1.8101,-1.788,-1.7908,-1.7913,-1.7948,-1.7957,-1.7982,-1.7992,-1.8006,-1.8018,-1.8048,-1.8066,-1.8073,-1.8086,-1.8109,-1.8129,-1.8131,-1.814,-1.8148,-1.815,-1.811,-1.8105,-1.81,-1.8094,-1.8149,-1.8149,-1.8191,-1.8191,-1.8191]}]]